Queensbury, NY

8:57 PM EST on December 02, 2016 (GMT -0500)
Bennett Memorial

Weather History for KGFL - December, 2012

Change the Weather History Date:

Saturday, December 29, 2012

  Actual Average Record
Temperature  
Mean Temperature 18 °F 20 °F  
Max Temperature 26 °F 30 °F 62 °F (1984)
Min Temperature 9 °F 11 °F -9 °F (1970)
Degree Days  
Heating Degree Days 47 45  
Month to date heating degree days 977 1149  
Since 1 July heating degree days 2500 2847  
Cooling Degree Days 0 0  
Month to date cooling degree days 0 0  
Year to date cooling degree days 533 352  
Moisture  
Dew Point 18 °F    
Average Humidity 90    
Maximum Humidity 96    
Minimum Humidity 83    
Precipitation  
Precipitation 0.24 in 0.08 in 0.93 in (2015)
Month to date precipitation 3.38 2.87  
Year to date precipitation 34.75 38.88  
Sea Level Pressure  
Sea Level Pressure 29.83 in    
Wind  
Wind Speed 3 mph (NE)    
Max Wind Speed 12 mph    
Max Gust Speed 15 mph    
Visibility 2 miles    
Events Fog , Snow    
T = Trace of Precipitation, MM = Missing Value Source: NWS Daily Summary

Daily Weather History Graph

Daily Weather History Graph

Search for Another Location

Airport or City:

Trip Planner

Search our weather history database for the weather conditions in past years. The results will help you decide how hot, cold, wet, or windy it might be!

Date:

Astronomy

Dec. 29, 2012 Rise Set
Actual Time 7:26 AM EST 4:27 PM EST
Civil Twilight 6:54 AM EST 4:59 PM EST
Nautical Twilight 6:18 AM EST 5:35 PM EST
Astronomical Twilight 5:43 AM EST 6:10 PM EST
Moon 6:00 PM EST (12/29) 7:55 AM EST (12/29)
Length of Visible Light 10h 05m
Length of Day
9h 00m
Full, 98% of the Moon is Illuminated
Dec 29
Full
Jan 4
Last Quarter
Jan 11
New
Jan 18
First Quarter
Jan 26
Full

Hourly Weather History & Observations

Time (EST) Temp. Windchill Dew Point Humidity Pressure Visibility Wind Dir Wind Speed Gust Speed Precip Events Conditions
12:02 AM 12.2 °F - 10.4 °F 92% 30.03 in 0.2 mi Calm Calm - N/A Fog Light Freezing Fog
12:12 AM 10.4 °F - 8.6 °F 92% 30.04 in 0.5 mi Calm Calm - N/A Fog Light Freezing Fog
12:26 AM 10.4 °F - 8.6 °F 92% 30.03 in 0.2 mi Calm Calm - N/A Fog Light Freezing Fog
12:44 AM 10.4 °F - 8.6 °F 92% 30.03 in 0.5 mi Calm Calm - N/A Fog Light Freezing Fog
12:51 AM 8.6 °F - 8.6 °F 100% 30.03 in 0.2 mi Calm Calm - N/A Fog Light Freezing Fog
12:53 AM 10.0 °F - 8.1 °F 92% 30.07 in 0.2 mi Calm Calm - N/A Fog Light Freezing Fog
1:06 AM 10.4 °F - 8.6 °F 92% 30.03 in 0.8 mi Calm Calm - N/A   Mist
1:13 AM 10.4 °F - 8.6 °F 92% 30.03 in 1.2 mi Calm Calm - N/A   Scattered Clouds
1:17 AM 10.4 °F - 8.6 °F 92% 30.03 in 0.8 mi Calm Calm - N/A   Mist
1:33 AM 10.4 °F - 8.6 °F 92% 30.03 in 1.0 mi Calm Calm - N/A   Mist
1:37 AM 10.4 °F - 8.6 °F 92% 30.03 in 3.0 mi Calm Calm - N/A   Mostly Cloudy
1:41 AM 10.4 °F - 6.8 °F 85% 30.03 in 1.8 mi Calm Calm - N/A   Mostly Cloudy
1:53 AM 10.0 °F - 7.0 °F 87% 30.06 in 1.2 mi Calm Calm - N/A   Overcast
2:18 AM 12.2 °F - 10.4 °F 92% 30.04 in 2.0 mi Calm Calm - N/A   Overcast
2:25 AM 10.4 °F - 10.4 °F 100% 30.04 in 6.0 mi Calm Calm - N/A   Overcast
2:53 AM 12.9 °F - 10.0 °F 88% 30.07 in 8.0 mi Calm Calm - N/A   Overcast
3:37 AM 15.8 °F - 10.4 °F 79% 30.03 in 10.0 mi Calm Calm - N/A   Overcast
3:53 AM 15.1 °F - 12.9 °F 91% 30.06 in 9.0 mi Calm Calm - N/A   Overcast
4:35 AM 15.8 °F - 14.0 °F 93% 29.99 in 10.0 mi Calm Calm - N/A   Mostly Cloudy
4:53 AM 16.0 °F - 12.9 °F 88% 30.03 in 9.0 mi Calm Calm - N/A   Overcast
5:53 AM 18.0 °F - 16.0 °F 92% 29.99 in 9.0 mi Calm Calm - N/A   Overcast
6:23 AM 17.6 °F - 15.8 °F 93% 29.96 in 9.0 mi Calm Calm - N/A   Overcast
6:35 AM 19.4 °F - 15.8 °F 86% 29.96 in 8.0 mi Calm Calm - N/A   Overcast
6:53 AM 19.9 °F 14.9 °F 17.1 °F 89% 30.00 in 8.0 mi WSW 3.5 mph - N/A   Overcast
7:27 AM 21.2 °F - 19.4 °F 93% 29.97 in 8.0 mi Calm Calm - N/A   Overcast
7:53 AM 21.9 °F - 19.9 °F 92% 29.99 in 4.0 mi Calm Calm - 0.00 in   Overcast
8:19 AM 21.2 °F - 21.2 °F 100% 29.96 in 2.0 mi Calm Calm - 0.00 in Snow Light Snow
8:33 AM 23.0 °F 17.0 °F 21.2 °F 93% 29.95 in 1.8 mi East 4.6 mph - 0.00 in Snow Light Snow
8:41 AM 21.2 °F - 19.4 °F 93% 29.95 in 1.5 mi Calm Calm - 0.00 in Snow Light Snow
8:53 AM 21.9 °F - 19.9 °F 92% 29.98 in 2.0 mi Calm Calm - 0.00 in Snow Light Snow
9:15 AM 21.2 °F - 19.4 °F 93% 29.94 in 4.0 mi Calm Calm - 0.00 in   Overcast
9:53 AM 23.0 °F 12.4 °F 19.9 °F 88% 29.94 in 5.0 mi NNE 10.4 mph - 0.00 in   Overcast
10:05 AM 23.0 °F 15.8 °F 19.4 °F 86% 29.91 in 1.8 mi NNE 5.8 mph - 0.00 in Snow Light Snow
10:29 AM 24.8 °F 17.9 °F 21.2 °F 86% 29.89 in 0.5 mi NNE 5.8 mph - 0.00 in Fog , Snow Snow
10:33 AM 24.8 °F 19.1 °F 21.2 °F 86% 29.88 in 0.2 mi NNE 4.6 mph - 0.00 in Fog , Snow Heavy Snow
10:41 AM 24.8 °F 20.5 °F 21.2 °F 86% 29.88 in 0.5 mi NE 3.5 mph - 0.01 in Fog , Snow Snow
10:53 AM 24.1 °F 18.2 °F 21.9 °F 91% 29.91 in 0.8 mi NE 4.6 mph - 0.01 in Snow Light Snow
11:06 AM 24.8 °F 16.9 °F 21.2 °F 86% 29.85 in 1.2 mi NNE 6.9 mph - 0.00 in Snow Light Snow
11:46 AM 24.8 °F - 21.2 °F 86% 29.83 in 0.5 mi Calm Calm - 0.01 in Fog , Snow Snow
11:53 AM 24.1 °F - 23.0 °F 96% 29.86 in 0.5 mi Calm Calm - 0.02 in Fog , Snow Snow
12:12 PM 24.8 °F - 23.0 °F 93% 29.81 in 0.8 mi Calm Calm - 0.00 in Snow Light Snow
12:46 PM 24.8 °F 20.5 °F 21.2 °F 86% 29.77 in 1.2 mi ENE 3.5 mph - 0.02 in Snow Light Snow
12:53 PM 24.1 °F 18.2 °F 21.9 °F 91% 29.80 in 1.0 mi East 4.6 mph - 0.02 in Snow Light Snow
1:07 PM 24.8 °F 19.1 °F 21.2 °F 86% 29.75 in 0.8 mi ENE 4.6 mph - 0.00 in Snow Light Snow
1:42 PM 24.8 °F 19.1 °F 21.2 °F 86% 29.72 in 0.5 mi NE 4.6 mph - 0.02 in Fog , Snow Snow
1:53 PM 24.1 °F 18.2 °F 21.9 °F 91% 29.75 in 0.5 mi NE 4.6 mph - 0.02 in Fog , Snow Snow
2:03 PM 24.8 °F - 23.0 °F 93% 29.71 in 1.2 mi Calm Calm - 0.00 in Snow Light Snow
2:27 PM 24.8 °F - 21.2 °F 86% 29.71 in 0.8 mi Calm Calm - 0.01 in Snow Light Snow
2:34 PM 24.8 °F - 21.2 °F 86% 29.71 in 0.2 mi Calm Calm - 0.02 in Fog , Snow Heavy Snow
2:44 PM 24.8 °F - 21.2 °F 86% 29.70 in 0.5 mi Calm Calm - 0.02 in Fog , Snow Snow
2:53 PM 25.0 °F - 21.9 °F 88% 29.74 in 0.8 mi Calm Calm - 0.02 in Snow Light Snow
3:23 PM 24.8 °F 20.5 °F 21.2 °F 86% 29.70 in 0.2 mi East 3.5 mph - 0.02 in Fog , Snow Snow
3:32 PM 24.8 °F 20.5 °F 21.2 °F 86% 29.70 in 0.2 mi ENE 3.5 mph - 0.03 in Fog , Snow Snow
3:53 PM 25.0 °F 19.3 °F 23.0 °F 92% 29.72 in 0.5 mi NE 4.6 mph - 0.06 in Fog , Snow Snow
4:24 PM 24.8 °F 19.1 °F 23.0 °F 93% 29.66 in 0.8 mi NE 4.6 mph - 0.01 in Snow Light Snow
4:32 PM 24.8 °F 19.1 °F 23.0 °F 93% 29.66 in 1.2 mi NE 4.6 mph - 0.01 in Snow Light Snow
4:53 PM 25.0 °F 19.3 °F 23.0 °F 92% 29.68 in 1.5 mi NNE 4.6 mph - 0.02 in Snow Light Snow
5:24 PM 24.8 °F 19.1 °F 23.0 °F 93% 29.64 in 0.5 mi NNE 4.6 mph - 0.02 in Fog , Snow Light Snow
5:34 PM 24.8 °F 19.1 °F 23.0 °F 93% 29.64 in 1.5 mi NE 4.6 mph - 0.02 in Snow Light Snow
5:53 PM 25.0 °F 18.1 °F 23.0 °F 92% 29.66 in 1.5 mi North 5.8 mph - 0.02 in Snow Light Snow
6:28 PM 24.8 °F 16.1 °F 23.0 °F 93% 29.60 in 2.0 mi North 8.1 mph - N/A Snow Light Snow
6:42 PM 24.8 °F 16.1 °F 23.0 °F 93% 29.60 in 3.0 mi North 8.1 mph - 0.01 in Snow Light Snow
6:53 PM 25.0 °F 14.8 °F 21.9 °F 88% 29.64 in 4.0 mi North 10.4 mph - 0.01 in Snow Light Snow
7:06 PM 24.8 °F 14.6 °F 21.2 °F 86% 29.62 in 4.0 mi North 10.4 mph - 0.00 in Snow Light Snow
7:51 PM 26.6 °F 18.2 °F 23.0 °F 86% 29.59 in 4.0 mi North 8.1 mph - 0.00 in Snow Light Snow
7:53 PM 26.6 °F 18.2 °F 23.0 °F 86% 29.59 in 3.0 mi North 8.1 mph - N/A Snow Light Snow
7:58 PM 26.6 °F 18.2 °F 23.0 °F 86% 29.59 in 2.5 mi North 8.1 mph - 0.00 in Snow Light Snow
8:12 PM 26.6 °F 16.8 °F 23.0 °F 86% 29.58 in 2.0 mi North 10.4 mph - 0.00 in Snow Light Snow
8:38 PM 26.6 °F 18.2 °F 23.0 °F 86% 29.58 in 3.0 mi NNE 8.1 mph - 0.00 in Snow Light Snow
8:46 PM 24.8 °F 17.9 °F 23.0 °F 93% 29.58 in 2.5 mi NE 5.8 mph - 0.00 in Snow Light Snow
8:53 PM 25.0 °F 20.7 °F 21.9 °F 88% 29.62 in 3.0 mi ENE 3.5 mph - 0.00 in Snow Light Snow
9:13 PM 24.8 °F 19.1 °F 21.2 °F 86% 29.59 in 2.0 mi East 4.6 mph - 0.00 in Snow Light Snow
9:22 PM 24.8 °F - 21.2 °F 86% 29.59 in 1.8 mi Calm Calm - 0.00 in Snow Light Snow
9:53 PM 24.1 °F - 21.9 °F 91% 29.62 in 1.2 mi Calm Calm - 0.01 in Snow Light Snow
10:18 PM 24.8 °F 20.5 °F 21.2 °F 86% 29.59 in 1.2 mi East 3.5 mph - 0.01 in Snow Light Snow
10:53 PM 23.0 °F - 21.9 °F 96% 29.63 in 1.8 mi Calm Calm - 0.02 in Snow Light Snow
11:53 PM 23.0 °F - 21.0 °F 92% 29.63 in 1.0 mi Calm Calm - 0.01 in Snow Light Snow